• en Belgique
  • Liste des pays
  • À 7 jours
  • Température de l'eau
  • Carte satellitaire
  • Carte météo
  • Widgets météo
  • user-avatar
    Se connecter

    Météo par heure à Rybnica

    Ce jour, 20 Avril, Vendredi

    Heure Température Précipitation Vent Pression Humidité
    00:00 +10°C° 0 mm 4 m/s 745 mmHg 69%
    01:00 +8°C° 0 mm 4 m/s 746 mmHg 72%
    02:00 +8°C° 0 mm 3 m/s 745 mmHg 82%
    03:00 +8°C° 0 mm 3 m/s 745 mmHg 84%
    04:00 +7°C° 0 mm 3 m/s 745 mmHg 86%
    05:00 +7°C° 0 mm 3 m/s 746 mmHg 88%
    06:00 +8°C° 0 mm 3 m/s 746 mmHg 83%
    07:00 +9°C° 0 mm 3 m/s 746 mmHg 78%
    08:00 +10°C° 0 mm 3 m/s 746 mmHg 73%
    09:00 +11°C° 0 mm 3 m/s 746 mmHg 66%
    10:00 +13°C° 0 mm 3 m/s 746 mmHg 59%
    11:00 +14°C° 0 mm 3 m/s 746 mmHg 52%
    12:00 +16°C° 0 mm 3 m/s 746 mmHg 48%
    13:00 +17°C° 0 mm 3 m/s 746 mmHg 45%
    14:00 +18°C° 0 mm 3 m/s 746 mmHg 41%
    15:00 +18°C° 0 mm 3 m/s 746 mmHg 42%
    16:00 +18°C° 0 mm 3 m/s 745 mmHg 42%
    17:00 +18°C° 0 mm 3 m/s 745 mmHg 43%
    18:00 +16°C° 0 mm 2 m/s 745 mmHg 49%
    19:00 +14°C° 0 mm 1 m/s 744 mmHg 54%
    20:00 +13°C° 0 mm 1 m/s 744 mmHg 60%
    21:00 +12°C° 0 mm 1 m/s 744 mmHg 61%
    22:00 +12°C° 0 mm 1 m/s 744 mmHg 62%
    23:00 +11°C° 0 mm 1 m/s 743 mmHg 63%

    Demain, 21 Avril, Samedi

    Heure Température Précipitation Vent Pression Humidité
    00:00 +10°C° 0 mm 2 m/s 743 mmHg 65%
    01:00 +9°C° 0 mm 2 m/s 743 mmHg 67%
    02:00 +9°C° 0 mm 3 m/s 743 mmHg 69%
    03:00 +9°C° 0 mm 3 m/s 742 mmHg 69%
    04:00 +8°C° 0 mm 3 m/s 742 mmHg 70%
    05:00 +8°C° 0 mm 3 m/s 741 mmHg 70%
    06:00 +10°C° 0 mm 4 m/s 741 mmHg 65%
    07:00 +12°C° 0 mm 4 m/s 740 mmHg 60%
    08:00 +13°C° 0 mm 5 m/s 740 mmHg 55%
    09:00 +15°C° 0 mm 6 m/s 740 mmHg 51%
    10:00 +19°C° 0 mm 6 m/s 739 mmHg 47%
    11:00 +21°C° 0 mm 7 m/s 739 mmHg 44%
    12:00 +22°C° 0 mm 7 m/s 739 mmHg 44%
    13:00 +23°C° 0 mm 7 m/s 739 mmHg 44%
    14:00 +24°C° 0 mm 8 m/s 738 mmHg 44%
    15:00 +24°C° 0 mm 7 m/s 738 mmHg 47%
    16:00 +23°C° 0 mm 6 m/s 738 mmHg 50%
    17:00 +22°C° 0 mm 5 m/s 737 mmHg 53%
    18:00 +20°C° 0,2 mm 5 m/s 738 mmHg 57%
    19:00 +18°C° 0,2 mm 4 m/s 738 mmHg 61%
    20:00 +17°C° 0,2 mm 4 m/s 738 mmHg 65%
    21:00 +14°C° 0 mm 3 m/s 738 mmHg 68%
    22:00 +13°C° 0 mm 3 m/s 738 mmHg 70%
    23:00 +12°C° 0 mm 3 m/s 739 mmHg 73%

    Après-demain, 22 Avril, Dimanche

    Heure Température Précipitation Vent Pression Humidité
    00:00 +12°C° 0 mm 2 m/s 739 mmHg 73%
    01:00 +10°C° 0 mm 2 m/s 739 mmHg 73%
    02:00 +9°C° 0 mm 2 m/s 739 mmHg 74%
    03:00 +8°C° 0 mm 2 m/s 739 mmHg 74%
    04:00 +8°C° 0 mm 2 m/s 739 mmHg 74%
    05:00 +7°C° 0 mm 2 m/s 739 mmHg 74%
    06:00 +8°C° 0 mm 2 m/s 740 mmHg 70%
    07:00 +10°C° 0 mm 2 m/s 740 mmHg 66%
    08:00 +12°C° 0 mm 2 m/s 740 mmHg 61%
    09:00 +12°C° 0 mm 3 m/s 740 mmHg 56%
    10:00 +14°C° 0 mm 3 m/s 740 mmHg 51%
    11:00 +16°C° 0 mm 3 m/s 740 mmHg 46%
    12:00 +17°C° 0 mm 4 m/s 740 mmHg 44%
    13:00 +18°C° 0 mm 4 m/s 739 mmHg 42%
    14:00 +18°C° 0 mm 4 m/s 739 mmHg 40%
    15:00 +18°C° 0 mm 4 m/s 739 mmHg 41%
    16:00 +18°C° 0 mm 4 m/s 738 mmHg 41%
    17:00 +18°C° 0 mm 4 m/s 738 mmHg 42%
    18:00 +16°C° 0 mm 3 m/s 738 mmHg 48%
    19:00 +14°C° 0 mm 2 m/s 738 mmHg 54%
    20:00 +13°C° 0 mm 2 m/s 738 mmHg 60%
    21:00 +12°C° 0 mm 1 m/s 738 mmHg 61%
    22:00 +11°C° 0 mm 1 m/s 738 mmHg 63%
    23:00 +10°C° 0 mm 1 m/s 739 mmHg 64%

    23 Avril, Lundi

    Heure Température Précipitation Vent Pression Humidité
    00:00 +10°C° 0 mm 1 m/s 739 mmHg 65%
    01:00 +10°C° 0 mm 1 m/s 738 mmHg 66%
    02:00 +9°C° 0 mm 1 m/s 738 mmHg 67%
    03:00 +9°C° 0 mm 1 m/s 738 mmHg 68%
    04:00 +9°C° 0 mm 1 m/s 738 mmHg 69%
    05:00 +8°C° 0 mm 1 m/s 738 mmHg 71%
    06:00 +10°C° 0 mm 1 m/s 738 mmHg 66%
    07:00 +12°C° 0 mm 1 m/s 738 mmHg 62%
    08:00 +13°C° 0 mm 1 m/s 738 mmHg 58%
    09:00 +15°C° 0 mm 1 m/s 738 mmHg 53%
    10:00 +18°C° 0 mm 1 m/s 738 mmHg 48%
    11:00 +20°C° 0 mm 1 m/s 738 mmHg 43%
    12:00 +21°C° 0 mm 1 m/s 737 mmHg 41%
    13:00 +21°C° 0 mm 1 m/s 737 mmHg 39%
    14:00 +21°C° 0 mm 2 m/s 736 mmHg 37%
    15:00 +21°C° 0 mm 2 m/s 736 mmHg 39%
    16:00 +23°C° 0 mm 2 m/s 735 mmHg 41%
    17:00 +23°C° 0 mm 2 m/s 735 mmHg 43%
    18:00 +20°C° 1,4 mm 3 m/s 734 mmHg 54%
    19:00 +18°C° 1,4 mm 3 m/s 734 mmHg 65%
    20:00 +15°C° 1,4 mm 4 m/s 734 mmHg 76%
    21:00 +15°C° 2,1 mm 4 m/s 734 mmHg 81%
    22:00 +14°C° 2,1 mm 4 m/s 734 mmHg 87%
    23:00 +14°C° 2,1 mm 4 m/s 734 mmHg 92%

    24 Avril, Mardi

    Heure Température Précipitation Vent Pression Humidité
    00:00 +13°C° 0 mm 4 m/s 734 mmHg 93%
    01:00 +13°C° 0 mm 4 m/s 734 mmHg 95%
    02:00 +12°C° 0 mm 3 m/s 734 mmHg 96%
    03:00 +12°C° 0,1 mm 3 m/s 735 mmHg 95%
    04:00 +12°C° 0,1 mm 3 m/s 735 mmHg 94%
    05:00 +12°C° 0,1 mm 4 m/s 736 mmHg 93%
    06:00 +12°C° 0,1 mm 4 m/s 736 mmHg 88%
    07:00 +12°C° 0,1 mm 4 m/s 737 mmHg 82%
    08:00 +12°C° 0,1 mm 4 m/s 737 mmHg 77%
    09:00 +13°C° 0 mm 4 m/s 737 mmHg 70%
    10:00 +14°C° 0 mm 5 m/s 738 mmHg 62%
    11:00 +15°C° 0 mm 5 m/s 738 mmHg 55%
    12:00 +15°C° 0 mm 5 m/s 738 mmHg 55%
    13:00 +16°C° 0 mm 5 m/s 738 mmHg 55%
    14:00 +16°C° 0 mm 5 m/s 738 mmHg 54%
    15:00 +16°C° 0 mm 5 m/s 737 mmHg 55%
    16:00 +16°C° 0 mm 5 m/s 737 mmHg 56%
    17:00 +18°C° 0 mm 4 m/s 737 mmHg 57%
    18:00 +15°C° 0 mm 4 m/s 737 mmHg 62%
    19:00 +14°C° 0 mm 3 m/s 737 mmHg 66%
    20:00 +14°C° 0 mm 2 m/s 737 mmHg 71%
    21:00 +14°C° 0 mm 2 m/s 737 mmHg 74%
    22:00 +13°C° 0 mm 2 m/s 737 mmHg 77%
    23:00 +13°C° 0 mm 1 m/s 737 mmHg 80%

    25 Avril, Mercredi

    Heure Température Précipitation Vent Pression Humidité
    00:00 +13°C° 0 mm 2 m/s 737 mmHg 80%
    01:00 +13°C° 0 mm 2 m/s 737 mmHg 81%
    02:00 +12°C° 0 mm 2 m/s 737 mmHg 81%
    03:00 +11°C° 0 mm 3 m/s 737 mmHg 82%
    04:00 +11°C° 0 mm 3 m/s 737 mmHg 84%
    05:00 +11°C° 0 mm 3 m/s 737 mmHg 85%
    06:00 +12°C° 0 mm 3 m/s 737 mmHg 81%
    07:00 +13°C° 0 mm 4 m/s 737 mmHg 76%
    08:00 +14°C° 0 mm 4 m/s 737 mmHg 72%
    09:00 +16°C° 0 mm 5 m/s 737 mmHg 65%
    10:00 +19°C° 0 mm 6 m/s 737 mmHg 58%
    11:00 +21°C° 0 mm 7 m/s 737 mmHg 51%
    12:00 +22°C° 0 mm 7 m/s 736 mmHg 49%
    13:00 +23°C° 0 mm 7 m/s 736 mmHg 47%
    14:00 +23°C° 0 mm 7 m/s 735 mmHg 45%
    15:00 +23°C° 0 mm 6 m/s 735 mmHg 47%
    16:00 +23°C° 0 mm 5 m/s 734 mmHg 50%
    17:00 +23°C° 0 mm 4 m/s 734 mmHg 52%
    18:00 +22°C° 0,1 mm 4 m/s 734 mmHg 57%
    19:00 +20°C° 0,1 mm 4 m/s 734 mmHg 62%
    20:00 +19°C° 0,1 mm 3 m/s 734 mmHg 67%
    21:00 +17°C° 0,6 mm 3 m/s 733 mmHg 74%
    22:00 +16°C° 0,6 mm 3 m/s 733 mmHg 81%
    23:00 +15°C° 0,6 mm 2 m/s 733 mmHg 89%
    Voir plus